TimeEDT,TemperatureF,Dew PointF,Humidity,Sea Level PressureIn,VisibilityMPH,Wind Direction,Wind SpeedMPH,Gust SpeedMPH,PrecipitationIn,Events,Conditions,WindDirDegrees,DateUTC
12:18 AM,60.8,57.2,88,30.12,10.0,Calm,Calm,-,0.01,,Overcast,0,2013-10-07 04:18:00
12:52 AM,61.0,57.9,90,30.12,10.0,Calm,Calm,-,0.01,,Overcast,0,2013-10-07 04:52:00
1:52 AM,63.0,60.1,90,30.11,10.0,SE,4.6,-,N/A,,Overcast,140,2013-10-07 05:52:00
2:52 AM,64.9,62.1,90,30.09,10.0,Variable,4.6,-,N/A,,Overcast,0,2013-10-07 06:52:00
3:52 AM,66.0,63.0,90,30.07,9.0,Variable,4.6,-,N/A,,Overcast,0,2013-10-07 07:52:00
4:52 AM,68.0,64.0,87,30.06,8.0,South,5.8,-,N/A,,Overcast,170,2013-10-07 08:52:00
5:52 AM,68.0,64.9,90,30.06,7.0,Variable,5.8,-,N/A,,Overcast,0,2013-10-07 09:52:00
6:21 AM,68.0,64.4,88,30.06,5.0,South,9.2,-,N/A,,Overcast,190,2013-10-07 10:21:00
6:52 AM,68.0,66.0,93,30.06,5.0,Variable,5.8,-,N/A,,Overcast,0,2013-10-07 10:52:00
7:42 AM,69.8,66.2,88,30.06,5.0,South,8.1,-,N/A,,Overcast,180,2013-10-07 11:42:00
7:52 AM,70.0,66.9,90,30.06,5.0,South,5.8,-,N/A,,Overcast,170,2013-10-07 11:52:00
8:52 AM,70.0,66.9,90,30.04,2.5,Variable,6.9,17.3,0.01,Rain,Light Rain,0,2013-10-07 12:52:00
9:02 AM,69.8,66.2,88,30.04,3.0,SSE,9.2,18.4,0.01,Rain,Light Rain,150,2013-10-07 13:02:00
9:52 AM,71.1,66.9,87,30.03,5.0,SSE,10.4,16.1,0.02,,Overcast,160,2013-10-07 13:52:00
10:08 AM,69.8,66.2,88,30.03,1.8,South,8.1,24.2,0.05,Rain,Rain,180,2013-10-07 14:08:00
10:23 AM,71.6,66.2,83,30.02,3.0,SSE,9.2,-,0.08,Rain,Light Rain,160,2013-10-07 14:23:00
10:52 AM,71.1,68.0,90,30.01,7.0,South,8.1,18.4,0.08,,Overcast,170,2013-10-07 14:52:00
11:27 AM,71.6,66.2,83,30.00,10.0,South,10.4,26.5,0.00,,Overcast,190,2013-10-07 15:27:00
11:52 AM,72.0,66.0,81,29.99,10.0,South,9.2,19.6,0.00,,Overcast,180,2013-10-07 15:52:00
12:10 PM,71.6,66.2,83,29.99,10.0,South,11.5,19.6,N/A,,Overcast,180,2013-10-07 16:10:00
12:13 PM,71.6,66.2,83,29.99,10.0,South,10.4,18.4,N/A,,Overcast,170,2013-10-07 16:13:00
12:42 PM,73.4,66.2,78,29.97,10.0,South,10.4,20.7,N/A,,Overcast,180,2013-10-07 16:42:00
12:52 PM,73.0,66.9,81,29.97,10.0,South,13.8,21.9,N/A,,Overcast,180,2013-10-07 16:52:00
1:07 PM,73.4,66.2,78,29.96,10.0,South,12.7,24.2,N/A,,Overcast,190,2013-10-07 17:07:00
1:52 PM,73.0,66.9,81,29.94,10.0,South,12.7,23.0,N/A,,Overcast,190,2013-10-07 17:52:00
2:09 PM,73.4,66.2,78,29.93,10.0,South,15.0,24.2,0.00,,Overcast,190,2013-10-07 18:09:00
2:29 PM,75.2,66.2,73,29.92,10.0,South,16.1,31.1,0.00,,Overcast,180,2013-10-07 18:29:00
2:52 PM,75.0,66.9,76,29.92,10.0,South,13.8,26.5,0.00,,Mostly Cloudy,190,2013-10-07 18:52:00
3:52 PM,73.9,66.9,79,29.91,10.0,South,18.4,29.9,N/A,,Mostly Cloudy,190,2013-10-07 19:52:00
4:52 PM,73.0,66.9,81,29.90,10.0,South,9.2,20.7,N/A,,Overcast,180,2013-10-07 20:52:00
5:52 PM,73.0,66.0,79,29.90,10.0,SSW,12.7,23.0,N/A,,Mostly Cloudy,200,2013-10-07 21:52:00
6:52 PM,72.0,66.0,81,29.90,10.0,South,15.0,20.7,N/A,,Overcast,190,2013-10-07 22:52:00
7:00 PM,71.6,66.2,83,29.90,10.0,SSW,15.0,23.0,N/A,,Overcast,200,2013-10-07 23:00:00
7:52 PM,72.0,66.0,81,29.90,10.0,SSW,15.0,23.0,N/A,,Overcast,200,2013-10-07 23:52:00
8:52 PM,72.0,66.0,81,29.87,10.0,South,12.7,25.3,0.00,Rain,Light Rain,190,2013-10-08 00:52:00
9:17 PM,71.6,66.2,83,29.86,10.0,SSW,12.7,18.4,0.00,,Mostly Cloudy,210,2013-10-08 01:17:00
9:41 PM,71.6,66.2,83,29.86,10.0,SSW,9.2,-,0.00,,Mostly Cloudy,200,2013-10-08 01:41:00
9:52 PM,71.1,66.9,87,29.87,10.0,SW,11.5,19.6,0.00,,Overcast,220,2013-10-08 01:52:00
10:33 PM,69.8,66.2,88,29.88,8.0,SW,16.1,20.7,0.01,Rain,Light Rain,230,2013-10-08 02:33:00
10:52 PM,70.0,66.0,87,29.88,10.0,SW,8.1,-,0.01,,Overcast,220,2013-10-08 02:52:00
11:39 PM,68.0,64.4,88,29.88,9.0,WSW,4.6,-,0.00,Rain,Light Rain,240,2013-10-08 03:39:00
11:52 PM,68.0,64.9,90,29.89,6.0,WSW,6.9,-,0.01,Rain,Light Rain,250,2013-10-08 03:52:00